GFSNIL_prec_cthk_117.txt.gz
RH
52 46 44 45 54 65 77 77 78 83 86 97 98 95 96 95 94 96 95 96 93 92
53 52 56 65 76 82 82 86 89 89 93 96 96 98 97 99 97 96 95 95 92 91
93 90 95 95 94 96 95 96 97 97 97 98 98 97 98 96 94 94 95 95 94 93
99 96 96 97 99 99 99 99 98 97 98 97 97 98 97 96 96 96 99 98 94 85
99 99 99 99 99 98 98 98 98 96 97 97 96 94 94 95 95 93 89 87 81 74
94 94 94 94 93 90 89 88 80 78 77 75 73 73 72 72 70 67 64 58 54 52
74 69 70 68 61 57 52 45 40 37 33 31 28 27 27 27 26 26 26 26 26 27
48 41 38 36 32 29 27 24 22 20 19 18 18 17 16 17 17 16 17 17 19 20
30 25 21 17 14 13 11 11 10 9 9 9 10 10 11 12 12 13 14 15 16 18
11 10 9 8 8 8 9 9 10 10 10 10 10 10 11 11 12 13 14 14 15 15
10 10 10 10 10 10 10 9 10 10 10 11 12 13 13 13 14 15 16 16 17 17
11 10 11 10 10 10 11 11 11 11 12 12 13 14 15 16 16 17 17 18 18 20
12 11 11 11 11 11 11 12 13 14 15 16 17 18 19 20 20 19 20 20 19 18
13 13 12 12 12 13 13 14 15 16 18 19 20 20 21 21 22 24 25 23 21 21

GFSNIL_prec_cthk_120.txt.gz
RH
37 45 48 49 49 50 51 51 55 62 72 71 74 77 84 85 87 88 92 92 93 95
56 54 54 59 53 50 47 47 58 68 78 80 78 80 89 98 97 95 92 94 95 97
76 67 57 52 52 53 58 71 82 82 86 85 88 90 94 96 97 97 94 97 98 98
85 88 77 83 84 90 97 98 92 96 95 96 93 94 96 98 98 98 97 97 96 94
98 99 99 99 99 99 99 98 99 98 99 99 98 96 97 97 95 94 93 93 89 88
98 98 98 98 97 96 94 95 93 93 93 88 88 87 87 90 88 85 86 81 75 71
90 85 90 90 83 82 81 72 66 65 62 58 50 43 39 36 35 34 32 30 27 26
68 66 63 59 54 50 49 42 36 34 30 24 20 18 17 16 15 14 14 14 14 14
41 38 36 35 28 28 20 16 12 10 9 8 8 9 9 9 10 10 11 11 12 13
20 15 12 9 8 8 8 9 9 10 10 10 10 10 10 11 12 13 13 14 14 15
10 10 10 10 10 10 10 9 9 9 10 11 11 12 13 14 15 16 17 18 19 20
11 11 11 11 10 10 10 10 11 11 12 12 13 14 17 18 19 20 21 23 23 23
12 12 11 11 10 11 11 12 12 12 12 13 15 18 20 22 24 24 23 23 22 22
13 13 12 12 12 12 13 13 13 14 15 17 19 21 23 24 24 22 22 22 23 24

GFSNIL_prec_cthk_123.txt.gz
RH
34 30 30 36 47 46 48 45 46 48 50 54 60 61 68 68 71 79 83 84 82 88
40 37 35 41 49 52 52 49 52 59 57 53 58 73 78 75 78 80 85 89 94 94
44 45 40 47 53 55 59 55 53 56 50 53 67 80 82 81 85 86 92 97 98 97
60 54 62 64 66 67 62 60 61 58 70 81 86 95 86 85 90 95 97 99 99 97
84 90 86 78 76 76 75 86 91 93 99 94 99 98 99 99 97 98 98 98 97 97
96 97 99 99 99 97 96 97 98 99 98 98 98 99 98 98 98 95 92 91 89 88
94 97 97 96 96 97 97 96 93 90 92 94 84 80 76 73 68 61 56 48 43 40
91 88 84 91 83 77 83 65 60 58 56 54 48 38 28 22 19 17 15 14 13 12
63 57 51 51 48 48 45 38 29 25 22 17 12 10 10 9 9 10 10 11 12 13
30 29 26 24 22 26 18 15 11 10 10 9 9 9 10 10 10 11 12 13 14 15
10 10 10 11 11 10 10 10 9 10 10 10 11 11 10 10 11 12 15 17 19 20
13 12 12 11 10 10 10 10 11 11 11 10 10 11 12 13 15 18 20 22 23 22
12 12 12 11 11 11 11 12 12 11 11 11 12 13 14 16 19 21 23 24 26 28
13 13 13 13 12 12 12 12 12 11 12 13 14 15 17 19 22 23 23 23 23 23

GFSNIL_prec_cthk_129.txt.gz
RH
62 54 49 46 41 41 36 33 43 54 55 57 67 74 73 70 63 61 59 49 45 49
70 61 56 49 48 50 47 41 49 56 63 57 55 64 73 71 65 62 56 49 45 54
78 75 67 67 66 61 56 51 51 61 68 66 65 67 67 66 66 64 65 59 53 69
71 69 70 68 65 60 60 57 55 61 68 67 63 57 64 64 60 59 65 57 62 80
72 69 69 66 60 59 58 62 65 66 68 59 59 58 56 59 60 64 63 60 96 98
87 92 89 91 88 80 76 66 67 56 54 56 58 62 62 67 66 84 78 90 98 99
98 98 98 98 97 93 87 77 70 76 76 84 80 73 68 73 83 96 98 97 97 93
86 91 95 94 95 98 98 96 97 96 93 94 94 98 94 91 78 69 68 62 57 51
46 50 68 77 72 86 80 82 79 67 56 59 84 83 62 56 49 43 39 30 18 11
31 28 36 33 41 46 34 31 27 22 24 27 26 27 24 18 14 11 10 10 11 10
14 14 16 18 21 19 18 17 16 14 14 12 11 11 10 10 10 10 11 11 12 12
14 13 12 12 12 12 11 11 11 11 11 11 10 10 10 10 11 11 11 12 12 13
12 13 13 13 13 12 12 12 12 12 12 11 11 11 11 11 11 11 12 13 14 16
12 13 14 14 15 14 14 14 14 13 13 12 12 12 12 12 13 13 14 15 18 20

GFSNIL_prec_cthk_132.txt.gz
RH
77 75 72 62 59 53 49 43 41 38 37 43 53 56 57 68 79 86 86 85 83 75
77 79 72 66 58 51 49 47 42 37 40 47 49 63 70 75 83 86 84 76 73 69
73 77 78 76 69 67 63 55 53 44 42 49 60 64 69 77 82 81 80 77 75 71
62 64 67 70 70 68 71 69 61 57 52 54 63 68 67 68 68 66 66 65 65 63
74 73 76 74 70 66 64 62 61 62 57 59 63 72 71 69 67 66 65 64 64 62
90 89 90 95 92 85 72 63 63 65 63 65 64 66 65 64 62 59 55 54 59 69
88 94 97 96 98 97 93 89 81 76 71 70 66 65 74 67 65 69 64 68 85 88
58 58 86 89 82 94 95 94 94 96 94 96 92 92 95 92 77 69 74 88 87 85
37 40 44 54 76 76 74 79 77 77 71 59 71 95 86 74 71 66 54 50 49 45
19 19 26 26 38 36 33 36 35 28 24 25 29 38 48 40 36 33 33 30 24 19
14 12 12 13 15 16 16 16 14 13 13 12 11 13 13 12 11 10 11 11 11 11
12 12 12 13 12 12 12 11 11 11 11 11 11 11 10 10 11 11 12 12 12 12
12 12 13 14 14 14 13 13 12 12 12 12 11 11 11 11 11 11 11 12 12 13
14 12 12 13 14 15 15 15 15 15 15 15 14 14 14 15 15 16 17 18 19 21

GFSNIL_prec_cthk_135.txt.gz
RH
50 55 61 66 70 71 69 64 60 57 56 50 43 39 41 39 44 57 76 90 98 98
53 56 61 68 71 72 74 66 62 58 57 50 46 46 47 51 50 51 61 74 84 89
55 58 62 66 71 75 72 69 66 59 56 46 44 50 51 52 57 66 64 69 76 82
64 62 63 65 67 66 67 69 71 68 59 56 50 49 53 56 57 62 71 77 80 80
77 77 76 76 78 73 63 64 64 64 65 64 60 64 61 63 67 68 67 68 71 67
64 76 87 87 89 90 79 66 56 60 62 64 63 61 60 61 67 70 68 65 65 64
55 59 77 84 75 90 83 81 85 81 80 75 72 69 68 64 64 66 65 64 65 62
35 38 43 70 76 89 90 89 91 94 97 98 96 87 89 93 89 87 81 77 74 73
21 20 25 32 47 41 54 68 70 68 71 58 49 79 89 85 77 74 72 60 50 53
13 12 11 16 19 20 20 20 19 17 15 16 21 27 51 50 44 41 42 41 39 37
12 11 11 12 12 12 12 12 12 12 12 12 12 12 12 13 11 11 12 12 12 12
12 11 11 12 13 13 12 12 12 12 12 12 12 11 11 11 11 12 12 12 12 12
15 13 11 12 13 14 14 14 14 14 14 13 13 13 12 12 12 12 13 13 14 15
25 19 16 13 14 15 16 17 17 18 18 18 18 18 19 19 19 20 21 22 22 23

GFSNIL_prec_cthk_138.txt.gz
RH
54 52 49 48 50 48 51 56 58 66 72 69 64 58 51 50 52 52 42 42 57 69
58 55 53 52 53 55 55 61 65 65 66 66 65 60 60 60 59 59 58 45 41 52
61 59 59 60 59 58 58 57 62 68 67 61 59 59 60 61 60 61 65 65 60 63
59 65 67 66 67 68 62 55 55 62 66 63 58 55 55 53 55 61 67 72 70 66
51 61 71 73 74 76 74 65 57 56 57 63 66 63 63 63 59 56 61 63 65 66
48 46 57 70 67 76 76 78 74 60 58 60 61 60 62 60 61 63 65 68 72 69
27 25 36 49 59 72 73 72 79 85 86 85 85 82 72 67 62 63 63 65 66 69
18 15 18 28 38 34 60 66 65 69 74 81 76 73 82 86 88 86 84 79 84 77
12 12 10 14 18 21 20 25 41 40 38 31 27 32 68 74 66 65 72 76 63 51
10 10 10 10 11 11 12 12 13 13 13 13 12 12 23 29 31 32 33 30 30 30
13 11 10 11 11 12 11 11 11 11 11 11 11 11 12 11 13 12 12 12 12 12
20 15 12 11 12 13 14 14 13 13 13 13 13 12 12 12 12 12 12 12 13 13
26 24 19 15 13 14 15 16 16 17 17 17 17 17 17 17 18 18 19 19 20 21
28 26 24 20 16 13 13 14 16 17 18 19 20 21 21 21 22 22 22 23 23 24

GFSNIL_prec_cthk_141.txt.gz
RH
53 52 50 48 46 47 50 50 49 45 46 45 54 70 71 71 73 67 60 57 56 49
55 56 53 50 51 54 54 54 53 49 51 51 56 63 67 72 74 72 70 65 62 60
47 51 54 55 55 56 58 59 55 50 50 54 54 56 54 61 68 67 66 65 69 70
42 47 54 57 57 61 62 64 64 57 56 54 53 58 59 56 56 55 56 64 74 78
29 32 38 48 57 60 58 59 66 64 61 59 57 60 60 61 62 59 59 56 56 58
20 17 26 32 38 50 54 53 56 55 66 65 68 74 73 65 58 56 58 60 61 63
14 13 11 19 28 29 50 53 54 52 57 65 64 70 68 78 74 72 65 61 59 61
12 11 11 9 12 20 20 40 48 48 47 50 49 36 39 64 70 77 86 87 87 84
11 10 10 10 9 10 10 11 15 18 18 13 12 12 24 42 33 32 38 42 38 40
17 12 9 9 9 10 10 10 11 11 11 11 11 11 11 16 20 20 24 26 23 21
22 20 15 11 11 12 13 13 13 12 12 12 12 12 12 11 11 11 12 12 12 12
26 25 22 18 13 11 12 13 14 14 14 15 15 15 15 15 15 16 16 16 17 17
26 27 28 27 24 18 14 14 15 17 18 19 20 19 18 17 18 19 20 21 22 21
27 27 27 28 29 27 23 19 17 16 16 19 21 22 23 24 24 24 24 25 25 25

GFSNIL_prec_cthk_144.txt.gz
RH
39 41 50 51 49 48 49 48 50 52 52 49 46 42 39 41 56 72 74 76 75 73
34 39 49 50 50 50 51 52 50 50 50 51 51 51 48 45 45 59 72 77 79 76
22 33 37 50 51 51 52 51 50 55 54 52 53 51 51 55 52 55 56 64 68 72
16 23 29 37 41 46 46 43 45 49 50 52 53 56 58 62 58 56 56 58 55 65
16 16 16 24 28 33 45 44 45 42 44 49 48 48 57 62 66 59 58 60 60 59
15 14 12 12 16 26 34 42 43 41 41 49 51 52 54 56 66 72 64 62 60 61
13 11 10 10 10 13 18 30 35 38 39 42 42 39 33 39 52 58 62 68 65 62
15 12 10 10 9 9 9 11 22 29 31 30 28 21 15 37 48 47 60 68 67 69
17 16 12 9 8 9 9 10 10 11 13 12 12 11 11 14 18 21 23 27 27 25
19 18 18 15 11 10 11 12 12 12 12 12 11 11 11 11 12 13 15 14 13 12
22 22 21 21 18 13 10 11 12 13 14 14 15 15 16 16 15 14 13 13 14 14
23 24 24 24 24 21 18 14 13 14 15 16 16 17 18 19 19 20 21 22 23 23
25 25 26 26 26 26 24 20 16 15 15 16 17 18 18 19 21 22 24 25 26 27
25 26 27 28 27 27 27 28 25 22 18 17 16 16 17 17 18 22 22 24 26 29

GFSNIL_prec_cthk_147.txt.gz
RH
14 24 32 35 45 47 46 45 46 45 41 41 43 45 46 45 43 42 41 41 52 68
16 20 24 29 45 46 46 46 40 40 43 46 41 43 47 47 49 50 46 49 48 54
16 17 18 21 35 38 39 37 35 36 41 44 41 42 42 43 50 55 54 50 47 49
16 16 16 14 23 28 29 37 37 37 38 39 40 39 37 39 45 51 55 52 53 52
17 17 17 14 11 14 22 30 38 38 35 34 35 36 38 41 46 46 54 54 48 52
16 15 14 10 9 9 14 18 25 31 33 35 37 34 33 35 37 42 49 53 51 48
16 16 14 10 8 9 9 10 16 22 28 31 30 29 27 25 32 40 45 51 56 60
17 16 15 13 9 7 7 8 9 12 18 22 22 20 14 11 21 29 27 36 45 49
19 19 18 17 16 12 9 8 9 10 10 11 11 12 12 13 13 14 16 16 15 14
24 24 22 21 20 19 15 11 10 10 12 13 13 14 14 14 14 15 16 16 17 17
23 24 24 23 23 23 22 19 15 13 13 14 14 15 15 16 16 16 17 18 20 21
25 27 27 25 25 26 25 25 23 20 15 13 13 14 16 16 16 16 16 17 18 21
24 27 29 29 28 29 29 28 27 25 23 20 17 16 16 16 16 16 16 16 16 17
23 22 23 26 30 31 32 32 31 29 28 26 25 22 20 19 18 18 18 17 16 16

GFSNIL_prec_cthk_150.txt.gz
RH
13 10 14 18 19 34 39 41 42 39 37 37 37 36 35 37 34 36 39 43 40 44
15 12 14 14 14 28 30 34 33 31 32 36 35 35 35 34 34 38 42 48 46 45
16 13 16 14 12 22 25 25 30 31 30 31 34 34 34 34 35 38 42 45 45 42
17 14 16 15 15 12 15 19 23 30 30 29 28 28 29 29 31 37 38 41 47 42
17 16 14 16 16 11 9 10 16 19 22 25 26 29 30 28 31 37 38 40 44 44
16 17 16 17 17 10 8 8 11 15 19 23 25 28 29 26 26 27 34 38 41 44
16 17 17 17 16 14 9 7 7 9 16 20 25 26 25 24 18 18 30 30 37 44
20 20 19 19 18 17 15 11 8 8 10 14 20 22 20 14 13 15 18 19 21 27
19 21 24 24 23 21 20 19 15 11 10 11 12 13 13 13 13 14 14 14 14 15
19 17 18 22 24 24 23 23 22 19 15 11 11 13 13 14 14 14 14 15 14 14
21 20 21 23 25 27 26 24 24 24 22 19 16 14 13 14 14 15 16 16 16 16
23 22 22 24 26 29 30 28 27 27 26 24 22 20 17 16 15 16 19 20 19 19
43 41 30 24 25 28 30 30 30 30 29 28 27 25 24 20 18 17 17 19 19 18
50 49 47 43 36 29 28 30 31 31 31 30 30 30 28 26 24 22 19 19 18 19

GFSNIL_prec_cthk_153.txt.gz
RH
18 19 15 13 12 12 21 25 27 31 31 32 32 32 33 33 32 32 33 36 37 42
16 18 17 15 14 12 16 20 24 27 30 28 29 31 34 33 32 30 32 33 39 41
15 17 18 16 17 15 11 17 18 23 27 28 28 28 29 29 27 24 29 33 36 40
14 16 17 17 17 18 15 12 10 14 18 22 24 25 26 27 25 23 30 34 37 39
14 16 17 17 17 18 19 13 9 9 14 19 22 24 26 28 25 23 28 28 35 40
17 16 15 16 17 18 18 16 10 8 8 13 18 22 24 25 24 21 23 26 32 37
20 19 19 18 17 17 17 16 15 11 7 8 12 16 20 21 21 18 13 16 19 24
20 19 19 19 21 22 21 19 18 16 14 11 9 10 13 16 14 13 13 14 14 14
22 20 20 19 19 20 23 24 23 22 20 18 15 12 11 12 13 13 13 14 14 14
31 29 23 21 21 21 22 26 26 25 23 22 21 18 15 13 12 13 13 14 15 15
35 33 33 32 26 21 23 26 29 30 29 26 25 25 22 18 16 14 13 14 14 16
45 44 39 36 41 38 33 28 29 32 34 32 30 30 28 25 22 19 18 16 16 15
53 52 51 49 45 45 45 41 39 38 35 34 34 35 33 31 27 24 22 21 19 17
59 62 61 58 58 58 55 51 50 48 44 44 41 40 39 37 36 32 28 26 24 22

GFSNIL_prec_cthk_156.txt.gz
RH
16 15 14 17 16 15 13 13 16 19 25 28 28 30 31 33 32 31 29 29 30 34
16 14 13 16 17 15 16 13 15 17 20 26 27 28 29 30 29 29 27 26 31 33
16 14 13 15 16 16 17 18 13 14 14 18 22 23 25 25 24 24 24 26 31 33
16 17 15 14 16 16 16 18 19 14 11 12 17 20 22 23 24 25 22 27 29 30
18 17 18 17 17 17 16 17 19 17 11 8 11 16 18 20 21 23 20 22 24 28
20 21 21 20 19 19 18 17 18 17 15 11 8 11 15 17 19 18 18 17 14 20
21 21 20 20 20 21 21 20 20 18 17 15 12 9 10 14 16 17 16 12 12 12
26 28 28 22 21 21 20 22 23 23 22 21 19 16 13 11 11 13 12 13 13 12
31 30 30 32 30 26 23 21 22 25 26 25 23 22 20 18 15 13 12 12 13 13
38 39 38 37 37 35 34 30 25 23 26 29 29 28 26 23 20 18 17 15 13 13
49 48 47 46 46 45 42 38 37 35 32 30 31 34 33 32 29 25 22 20 17 15
45 50 54 56 56 57 55 53 48 46 44 43 44 43 40 36 34 33 30 26 23 20
28 31 35 40 44 47 52 58 60 62 61 58 54 53 52 49 46 41 38 36 33 28
27 28 31 33 38 43 47 51 54 58 62 65 67 69 67 63 60 57 52 50 46 41

GFSNIL_prec_cthk_159.txt.gz
RH
17 16 16 17 15 16 16 14 14 11 14 18 23 26 26 28 30 30 30 31 31 30
15 15 16 17 15 16 16 16 16 15 12 15 18 21 22 25 26 27 28 26 27 29
13 13 14 17 17 15 16 16 15 16 17 15 14 16 17 20 22 23 24 25 24 29
15 15 16 17 18 19 17 16 15 15 17 17 14 13 16 18 21 22 24 23 20 24
18 18 19 21 21 21 21 19 18 17 17 17 16 12 10 13 17 19 20 21 20 18
24 23 21 20 20 20 20 21 22 21 20 19 18 16 13 10 11 15 18 19 18 15
26 26 26 28 28 26 23 21 21 21 23 23 23 21 19 16 13 12 14 16 16 12
29 30 31 33 33 34 32 30 28 25 23 22 24 26 24 22 19 17 15 14 13 13
27 31 33 35 36 37 40 42 39 36 31 31 27 26 28 28 26 23 20 17 15 14
28 31 37 44 50 52 52 51 50 48 45 41 37 36 38 37 33 30 28 25 22 19
36 31 27 26 27 32 36 41 46 51 54 55 55 51 48 47 48 46 41 36 31 28
21 21 21 21 23 26 29 32 36 39 42 45 48 51 59 64 64 61 56 50 47 43
28 28 26 27 27 26 27 30 33 36 40 44 46 48 51 55 57 61 71 75 72 66
34 32 31 30 31 31 31 31 32 32 35 38 41 45 47 50 52 58 62 65 74 78

GFSNIL_prec_cthk_162.txt.gz
RH
18 17 16 14 15 14 17 16 16 15 15 13 12 17 21 23 24 27 27 27 27 27
16 17 15 14 14 15 18 17 16 16 15 16 15 14 18 19 22 24 24 24 24 25
21 19 17 16 16 16 18 20 19 18 17 16 16 15 16 18 20 21 22 23 24 23
26 22 19 18 19 19 21 22 22 22 20 19 17 16 16 13 15 17 20 22 23 24
25 24 23 22 21 20 20 21 21 22 23 23 22 20 18 16 13 12 14 17 19 20
26 26 25 26 27 29 30 30 29 26 24 24 25 25 24 22 19 15 13 14 17 19
21 22 24 26 27 30 33 35 37 37 35 32 30 28 29 28 26 23 20 17 15 15
22 22 22 23 25 27 30 31 33 36 41 43 41 39 36 34 34 31 27 24 22 19
27 26 26 25 25 27 30 38 45 51 54 54 51 51 50 46 43 44 41 37 34 28
30 33 36 37 36 35 30 25 24 27 32 35 39 43 46 50 54 57 59 58 52 46
27 25 22 20 21 21 21 21 21 24 27 30 34 36 38 40 42 45 48 53 59 63
26 24 24 25 26 26 25 25 25 26 27 29 32 35 37 39 40 42 44 49 53 55
43 42 39 35 32 32 31 30 30 31 31 30 31 34 37 39 41 41 43 45 49 53
37 38 37 36 38 38 39 37 35 32 32 31 31 32 33 34 35 37 39 43 48 51

GFSNIL_prec_cthk_165.txt.gz
RH
20 17 17 17 16 16 15 14 15 16 17 15 14 14 13 15 18 20 24 25 25 25
20 19 20 21 19 19 18 16 17 18 19 19 17 14 14 13 16 19 19 23 23 22
29 27 26 25 23 20 19 18 19 20 22 23 22 21 18 16 14 15 17 17 19 20
31 29 29 27 25 23 22 22 22 21 22 22 22 23 23 22 20 16 16 16 16 17
30 30 27 24 24 24 24 26 28 29 31 31 30 28 27 26 25 24 20 17 17 16
23 23 21 21 20 21 22 24 25 27 30 33 37 37 36 35 33 31 28 25 21 18
20 21 22 22 21 20 21 22 23 25 27 29 32 37 42 44 43 41 40 37 32 28
22 20 21 23 25 27 27 27 27 28 30 35 41 46 48 48 49 50 50 50 48 45
26 25 24 24 24 24 25 25 27 28 27 28 29 30 33 36 37 40 43 45 49 53
31 30 28 28 28 26 27 28 27 25 22 21 23 25 28 31 33 35 36 37 39 42
36 41 41 36 34 31 27 26 26 26 25 24 25 27 29 31 32 33 35 38 40 41
30 32 34 36 34 32 35 37 39 36 33 33 33 30 30 32 33 33 34 37 40 42
41 35 36 38 35 33 34 35 36 36 36 37 36 37 38 38 36 34 34 34 36 38
43 40 40 37 38 37 37 37 35 34 35 35 36 36 36 36 36 37 38 39 41 43